GW1218 Weather Reports


time (UTC)temp
C
wind
direction
speed
KPH
gust
KPH
rain 1hr
cm
rain 24hr
cm
rain mn
cm
humidity
%
barometer
mb
20260507161519 25 82 8.0 16.1 0.00 0.00 0.00 17 1016.1
20260507160516 25 65 9.7 16.1 0.00 0.00 0.00 17 1016.2
20260507155540 25 72 8.0 14.5 0.00 0.00 0.00 17 1016.3
20260507154520 25 81 9.7 17.7 0.00 0.00 0.00 17 1016.2
20260507153520 25 65 9.7 17.7 0.00 0.00 0.00 17 1016.2
20260507152537 24 59 11.3 19.3 0.00 0.00 0.00 17 1016.2
20260507151517 24 69 9.7 17.7 0.00 0.00 0.00 17 1016.2
20260507150517 23 60 11.3 20.9 0.00 0.00 0.00 17 1016.2
20260507145517 23 57 9.7 16.1 0.00 0.00 0.00 17 1016.2
20260507144521 23 53 9.7 19.3 0.00 0.00 0.00 17 1016.2
20260507143518 23 61 9.7 17.7 0.00 0.00 0.00 17 1016.1
20260507142518 22 56 8.0 14.5 0.00 0.00 0.00 18 1016.2
20260507141518 22 60 9.7 14.5 0.00 0.00 0.00 18 1016.1
20260507140518 22 62 9.7 14.5 0.00 0.00 0.00 18 1016.1
20260507135518 21 67 8.0 14.5 0.00 0.00 0.00 19 1016.1
20260507134519 21 86 8.0 14.5 0.00 0.00 0.00 20 1016.0
20260507133519 21 101 8.0 16.1 0.00 0.00 0.00 21 1015.9
20260507132519 20 82 6.4 12.9 0.00 0.00 0.00 22 1015.9
20260507131519 20 91 6.4 11.3 0.00 0.00 0.00 24 1015.9
20260507130519 20 89 6.4 14.5 0.00 0.00 0.00 25 1015.9
20260507125519 20 67 6.4 11.3 0.00 0.00 0.00 26 1015.9
20260507124516 20 66 9.7 14.5 0.00 0.00 0.00 25 1015.8
20260507123517 20 59 9.7 22.5 0.00 0.00 0.00 26 1015.6
20260507122520 18 61 8.0 12.9 0.00 0.00 0.00 28 1015.7
20260507121520 16 16 1.6 6.4 0.00 0.00 0.00 38 1015.6
20260507120517 16 19 1.6 3.2 0.00 0.00 0.00 38 1015.7
20260507115538 16 334 1.6 9.7 0.00 0.00 0.00 38 1015.7
20260507114518 15 346 1.6 4.8 0.00 0.00 0.00 38 1015.8
20260507113518 15 42 1.6 3.2 0.00 0.00 0.00 41 1015.9
20260507112538 16 40 1.6 3.2 0.00 0.00 0.00 38 1016.0
20260507111538 16 72 3.2 3.2 0.00 0.00 0.00 37 1016.1
20260507110518 17 67 3.2 4.8 0.00 0.00 0.00 36 1016.1
20260507105519 17 52 4.8 8.0 0.00 0.00 0.00 35 1016.2
20260507104519 17 55 4.8 9.7 0.00 0.00 0.00 35 1016.2
20260507103518 17 53 4.8 9.7 0.00 0.00 0.00 34 1016.2
20260507102519 17 59 4.8 11.3 0.00 0.00 0.00 34 1016.4
20260507101517 17 50 6.4 11.3 0.00 0.00 0.00 34 1016.4
20260507100519 17 62 4.8 8.0 0.00 0.00 0.00 34 1016.5
20260507095519 17 64 6.4 11.3 0.00 0.00 0.00 34 1016.5
20260507094539 17 59 3.2 6.4 0.00 0.00 0.00 35 1016.5
20260507093517 17 62 4.8 8.0 0.00 0.00 0.00 35 1016.6
20260507092517 17 68 4.8 8.0 0.00 0.00 0.00 34 1016.7
20260507091517 17 52 3.2 6.4 0.00 0.00 0.00 35 1016.7
20260507090520 17 68 3.2 6.4 0.00 0.00 0.00 36 1016.7
20260507085518 16 63 4.8 9.7 0.00 0.00 0.00 37 1016.8
20260507084538 16 55 3.2 4.8 0.00 0.00 0.00 38 1016.8
20260507083518 16 62 3.2 6.4 0.00 0.00 0.00 38 1016.8
20260507082518 16 66 4.8 6.4 0.00 0.00 0.00 38 1016.9
20260507081518 16 59 3.2 4.8 0.00 0.00 0.00 38 1016.8
20260507080519 16 66 3.2 6.4 0.00 0.00 0.00 38 1016.8
20260507075519 17 58 3.2 4.8 0.00 0.00 0.00 36 1016.9
20260507074519 17 52 3.2 4.8 0.00 0.00 0.00 36 1017.0
20260507073539 17 40 3.2 6.4 0.00 0.00 0.00 36 1017.1
20260507072519 17 45 3.2 6.4 0.00 0.00 0.00 36 1017.1
20260507071519 16 36 4.8 8.0 0.00 0.00 0.00 37 1017.1
20260507070517 16 45 3.2 6.4 0.00 0.00 0.00 39 1017.1
20260507065557 16 57 1.6 3.2 0.00 0.00 0.00 39 1017.2
20260507064600 16 56 1.6 3.2 0.00 0.00 0.00 39 1017.1
20260507063517 16 43 1.6 3.2 0.00 0.00 0.00 38 1017.1
20260507062518 16 54 1.6 3.2 0.00 0.00 0.00 39 1017.1
20260507061518 16 57 1.6 3.2 0.00 0.00 0.00 38 1017.0
20260507060538 16 53 1.6 4.8 0.00 0.00 0.00 38 1017.0
20260507055518 16 52 1.6 3.2 0.00 0.00 0.00 38 1017.0
20260507054518 17 53 1.6 3.2 0.00 0.00 0.00 39 1016.9
20260507053519 17 52 1.6 3.2 0.00 0.00 0.00 38 1017.0
20260507052519 17 53 1.6 3.2 0.00 0.00 0.00 39 1017.0
20260507051559 17 59 0.0 3.2 0.00 0.00 0.00 37 1016.9
20260507050519 17 50 0.0 3.2 0.00 0.00 0.00 37 1016.9
20260507045519 18 38 1.6 3.2 0.00 0.00 0.00 36 1016.9
20260507044516 18 22 1.6 4.8 0.00 0.00 0.00 35 1016.9
20260507043517 18 35 1.6 4.8 0.00 0.00 0.00 35 1016.8
20260507042520 18 20 1.6 3.2 0.00 0.00 0.00 35 1016.7
20260507041520 18 27 1.6 3.2 0.00 0.00 0.00 34 1016.6
20260507040520 19 9 1.6 3.2 0.00 0.00 0.00 34 1016.4
20260507035517 19 354 3.2 4.8 0.00 0.00 0.00 34 1016.3
20260507034517 19 323 0.0 1.6 0.00 0.00 0.00 34 1016.2
20260507033537 19 60 0.0 1.6 0.00 0.00 0.00 34 1016.1
20260507032517 20 320 0.0 1.6 0.00 0.00 0.00 33 1015.9
20260507031518 20 303 1.6 3.2 0.00 0.00 0.00 33 1015.8
20260507030521 20 287 0.0 1.6 0.00 0.00 0.00 32 1015.6
20260507025518 21 282 1.6 4.8 0.00 0.00 0.00 31 1015.4
20260507024519 21 250 3.2 4.8 0.00 0.00 0.00 30 1015.4
20260507023518 21 258 3.2 6.4 0.00 0.00 0.00 29 1015.3
20260507022519 21 247 4.8 9.7 0.00 0.00 0.00 29 1015.2
20260507021519 22 245 4.8 11.3 0.00 0.00 0.00 28 1015.1
20260507020539 22 233 8.0 16.1 0.00 0.00 0.00 28 1015.0
20260507015516 22 240 8.0 12.9 0.00 0.00 0.00 28 1015.0
20260507014516 23 251 4.8 9.7 0.00 0.00 0.00 27 1014.9
20260507013520 23 249 8.0 16.1 0.00 0.00 0.00 27 1014.9
20260507012520 23 247 8.0 16.1 0.00 0.00 0.00 27 1014.8
20260507011517 23 232 8.0 17.7 0.00 0.00 0.00 26 1014.8
20260507010517 23 243 8.0 14.5 0.00 0.00 0.00 26 1014.8
20260507005537 23 238 8.0 12.9 0.00 0.00 0.00 26 1014.7
20260507004517 23 243 8.0 16.1 0.00 0.00 0.00 26 1014.7
20260507003518 24 237 9.7 19.3 0.00 0.00 0.00 26 1014.7
20260507002518 24 243 6.4 12.9 0.00 0.00 0.00 27 1014.7
20260507001558 24 250 6.4 14.5 0.00 0.00 0.00 26 1014.7
20260507000518 24 238 4.8 14.5 0.00 0.00 0.00 26 1014.7
20260506235518 24 240 6.4 11.3 0.00 0.00 0.00 27 1014.6
20260506234542 24 246 9.7 16.1 0.00 0.00 0.00 27 1014.7
20260506233519 23 234 8.0 12.9 0.00 0.00 0.00 27 1014.8
20260506232519 23 230 6.4 16.1 0.00 0.00 0.00 27 1014.8
20260506231538 23 252 6.4 12.9 0.00 0.00 0.00 27 1014.8
20260506230519 24 236 9.7 17.7 0.00 0.00 0.00 26 1014.9
20260506225519 23 233 8.0 17.7 0.00 0.00 0.00 27 1015.0
20260506224519 23 224 8.0 16.1 0.00 0.00 0.00 27 1015.1
20260506223540 23 252 11.3 20.9 0.00 0.00 0.00 27 1015.1
20260506222520 23 237 8.0 17.7 0.00 0.00 0.00 27 1015.2
20260506221520 23 271 6.4 14.5 0.00 0.00 0.00 27 1015.4
20260506220520 23 224 11.3 22.5 0.00 0.00 0.00 27 1015.4
20260506215520 23 248 11.3 20.9 0.00 0.00 0.00 27 1015.6
20260506214540 23 249 8.0 22.5 0.00 0.00 0.00 28 1015.7
20260506213517 23 236 8.0 14.5 0.00 0.00 0.00 28 1015.8
20260506212518 23 243 9.7 17.7 0.00 0.00 0.00 28 1015.9
20260506211521 22 246 8.0 17.7 0.00 0.00 0.00 29 1016.1
20260506210521 22 251 11.3 20.9 0.00 0.00 0.00 29 1016.2
20260506205518 22 255 8.0 17.7 0.00 0.00 0.00 29 1016.3
20260506204518 22 227 6.4 14.5 0.00 0.00 0.00 29 1016.5
20260506203518 22 294 4.8 12.9 0.00 0.00 0.00 29 1016.6
20260506202519 22 230 8.0 16.1 0.00 0.00 0.00 29 1016.7
20260506201519 22 235 8.0 19.3 0.00 0.00 0.00 30 1016.7
20260506200519 22 248 6.4 14.5 0.00 0.00 0.00 30 1016.8
20260506195519 22 250 11.3 19.3 0.00 0.00 0.00 31 1016.9
20260506194520 22 233 8.0 19.3 0.00 0.00 0.00 31 1017.0
20260506193520 22 250 8.0 17.7 0.00 0.00 0.00 31 1017.0
20260506192520 21 247 6.4 12.9 0.00 0.00 0.00 32 1017.1
20260506191540 21 254 8.0 19.3 0.00 0.00 0.00 32 1017.1
20260506190517 21 291 4.8 11.3 0.00 0.00 0.00 32 1017.2
20260506185517 21 240 8.0 14.5 0.00 0.00 0.00 32 1017.3
20260506184518 20 250 8.0 17.7 0.00 0.00 0.00 33 1017.4
20260506183517 20 232 4.8 12.9 0.00 0.00 0.00 33 1017.5
20260506182518 20 215 3.2 12.9 0.00 0.00 0.00 33 1017.6
20260506181541 20 274 3.2 11.3 0.00 0.00 0.00 33 1017.7
20260506180518 20 258 3.2 12.9 0.00 0.00 0.00 34 1017.7
20260506175518 20 198 4.8 12.9 0.00 0.00 0.00 34 1017.8
20260506174538 19 257 6.4 14.5 0.00 0.00 0.00 35 1017.8
20260506173519 19 233 9.7 17.7 0.00 0.00 0.00 34 1017.8
20260506172519 19 230 4.8 12.9 0.00 0.00 0.00 35 1017.8
20260506171519 18 241 6.4 19.3 0.00 0.00 0.00 36 1017.8
20260506170519 18 213 4.8 12.9 0.00 0.00 0.00 37 1017.8
20260506165519 18 199 4.8 12.9 0.00 0.00 0.00 37 1017.7
20260506164519 18 204 4.8 12.9 0.00 0.00 0.00 38 1017.6
20260506163520 18 248 6.4 14.5 0.00 0.00 0.00 38 1017.6
20260506162540 18 256 8.0 14.5 0.00 0.00 0.00 39 1017.5